| time (UTC) | temp F | wind direction | speed knots | gust knots | rain 1hr in | rain 24hr in | rain mn in | humidity % | barometer mb |
| 20260503070600 | 69 | 324 | 0.9 | 0.9 | 0.00 | 0.00 | 0.00 | 41 | 1019.2 |
| 20260503060300 | 66 | 235 | 0.9 | 0.9 | 0.00 | 0.00 | 0.00 | 46 | 1018.9 |
| 20260503054714 | 66 | 271 | 0.0 | 0.9 | 0.00 | 0.00 | 0.00 | 46 | 1018.9 |
| 20260503054200 | 66 | 282 | 0.0 | 0.0 | 0.00 | 0.00 | 0.00 | 47 | 1018.9 |
| 20260503053646 | 65 | 273 | 0.0 | 0.9 | 0.00 | 0.00 | 0.00 | 47 | 1018.9 |
| 20260503053130 | 65 | 267 | 0.0 | 0.0 | 0.00 | 0.00 | 0.00 | 47 | 1018.8 |
| 20260503052616 | 63 | 270 | 0.0 | 0.0 | 0.00 | 0.00 | 0.00 | 48 | 1018.9 |
| 20260503052101 | 63 | 270 | 0.0 | 0.9 | 0.00 | 0.00 | 0.00 | 48 | 1018.9 |
| 20260503051547 | 63 | 264 | 0.0 | 0.9 | 0.00 | 0.00 | 0.00 | 47 | 1018.9 |
| 20260503051031 | 62 | 266 | 0.0 | 0.9 | 0.00 | 0.00 | 0.00 | 50 | 1018.9 |
| 20260503050516 | 59 | 264 | 0.0 | 0.0 | 0.00 | 0.00 | 0.00 | 53 | 1018.9 |
| 20260503050002 | 58 | 278 | 0.0 | 0.9 | 0.00 | 0.00 | 0.00 | 53 | 1018.9 |
| 20260503045448 | 59 | 270 | 0.0 | 0.0 | 0.00 | 0.00 | 0.00 | 52 | 1018.9 |
| 20260503044933 | 59 | 258 | 0.0 | 0.0 | 0.00 | 0.00 | 0.00 | 54 | 1018.9 |
| 20260503044419 | 58 | 270 | 0.0 | 0.0 | 0.00 | 0.00 | 0.00 | 57 | 1018.9 |
| 20260503043906 | 55 | 263 | 0.0 | 0.0 | 0.00 | 0.00 | 0.00 | 61 | 1018.9 |
| 20260503043351 | 54 | 272 | 0.0 | 0.0 | 0.00 | 0.00 | 0.00 | 64 | 1018.9 |
| 20260503042836 | 53 | 276 | 0.0 | 0.0 | 0.00 | 0.00 | 0.00 | 73 | 1018.9 |
| 20260503042322 | 52 | 267 | 0.0 | 0.0 | 0.00 | 0.00 | 0.00 | 93 | 1018.8 |
| 20260503041808 | 50 | 270 | 0.0 | 0.0 | 0.00 | 0.00 | 0.00 | 10 | 1018.8 |
| 20260503041254 | 47 | 270 | 0.0 | 0.0 | 0.00 | 0.00 | 0.00 | 10 | 1018.7 |
| 20260503040741 | 44 | 270 | 0.0 | 0.0 | 0.00 | 0.00 | 0.00 | 10 | 1018.7 |